"2010-10-16 00:00:00",250861,2.896,112.3,1.052,0.036,18.97,108.3324,20.61,21.51,12.48,0,110.9,13.17,21.44,74.3
"2010-10-16 00:00:30",250862,2.781,116,2.443,0.059,18.85,108.3336,20.62,21.51,12.54,0,110.9,13.17,21.44,78.0
"2010-10-16 00:01:00",250863,2.906,115,1.327,0.049,18.83,108.3375,20.63,21.5,12.68,0,110.9,13.17,21.45,77.0
"2010-10-16 00:01:30",250864,2.797,111.4,1.706,0.059,18.98,108.3382,20.63,21.48,12.66,0,110.9,13.17,21.45,73.4
"2010-10-16 00:02:00",250865,2.798,110.3,0.911,0.075,18.99,108.3328,20.61,21.49,12.72,0,110.9,13.17,21.44,72.3
"2010-10-16 00:02:30",250866,2.933,107.8,1.605,0.049,18.89,108.3254,20.59,21.48,12.64,0,110.9,13.16,21.42,69.8
"2010-10-16 00:03:00",250867,3.086,105.9,1.349,0.069,18.84,108.3208,20.58,21.48,12.66,0,110.9,13.16,21.41,67.9
"2010-10-16 00:03:30",250868,3.259,108,3.223,0.09,18.93,108.3135,20.56,21.47,12.88,0,110.9,13.16,21.39,70.0
"2010-10-16 00:04:00",250869,3.247,113.8,1.928,0.102,18.9,108.3166,20.57,21.48,13.14,0,110.9,13.16,21.40,75.8
"2010-10-16 00:04:30",250870,3.084,115.7,1.469,0.119,18.84,108.3199,20.58,21.46,13.24,0,110.9,13.16,21.40,77.7
"2010-10-16 00:05:00",250871,3.034,113.3,2.034,0.068,18.91,108.3233,20.59,21.45,13.32,0,110.9,13.16,21.41,75.3
"2010-10-16 00:05:30",250872,3.003,116,3.619,0.113,18.95,108.3094,20.55,21.43,13.32,0,110.9,13.16,21.38,78.0
"2010-10-16 00:06:00",250873,3.158,122.1,1.155,0.074,19.04,108.2949,20.52,21.43,13.37,0,110.9,13.16,21.34,84.1
"2010-10-16 00:06:30",250874,3.204,122.2,0.983,0.081,19.08,108.2907,20.51,21.41,13.28,0,110.9,13.16,21.33,84.2
"2010-10-16 00:07:00",250875,3.318,121.3,1.609,0.047,19.04,108.2908,20.51,21.4,13.19,0,110.9,13.16,21.33,83.3
"2010-10-16 00:07:30",250876,3.343,122.9,1.429,0.034,18.94,108.292,20.51,21.4,13.17,0,110.9,13.17,21.33,84.9
"2010-10-16 00:08:00",250877,3.348,120.2,1.043,0.051,19.14,108.2929,20.51,21.4,12.99,0,110.9,13.17,21.33,82.2
"2010-10-16 00:08:30",250878,3.227,119.9,0.894,0.048,19.19,108.2959,20.52,21.4,13.01,0,110.9,13.17,21.34,81.9
"2010-10-16 00:09:00",250879,3.286,122.6,0.828,0.05,19,108.2944,20.52,21.39,12.95,0,110.9,13.17,21.34,84.6
"2010-10-16 00:09:30",250880,3.359,121.4,0.962,0.049,19.13,108.2975,20.52,21.41,12.89,0,110.9,13.17,21.35,83.4
"2010-10-16 00:10:00",250881,3.246,121.6,0.697,0.053,19.2,108.2993,20.53,21.42,12.92,0,110.9,13.17,21.35,83.6
"2010-10-16 00:10:30",250882,3.337,123.7,0.97,0.061,19.1,108.2996,20.53,21.4,12.87,0,110.9,13.17,21.35,85.7
"2010-10-16 00:11:00",250883,3.372,124.3,0.838,0.049,19.1,108.2996,20.53,21.41,12.86,0,110.9,13.17,21.35,86.3
"2010-10-16 00:11:30",250884,3.286,124.9,1.176,0.058,19.18,108.2996,20.53,21.41,12.83,0,110.9,13.17,21.35,86.9
"2010-10-16 00:12:00",250885,3.322,125.5,1.663,0.076,19.3,108.2996,20.53,21.4,12.8,0,110.9,13.17,21.35,87.5
"2010-10-16 00:12:30",250886,3.169,126.1,0.99,0.105,19.32,108.2996,20.53,21.4,12.81,0,110.9,13.17,21.35,88.1
"2010-10-16 00:13:00",250887,3.304,124.6,2.092,0.059,19.35,108.2996,20.53,21.42,12.77,0,110.9,13.18,21.35,86.6
"2010-10-16 00:13:30",250888,3.181,123.9,1.005,0.091,19.31,108.2996,20.53,21.41,12.8,0,110.9,13.18,21.35,85.9
"2010-10-16 00:14:00",250889,3.1,124.9,1.33,0.131,19.34,108.2996,20.53,21.41,12.82,0,110.9,13.18,21.35,86.9
"2010-10-16 00:14:30",250890,3.138,125.8,1.496,0.064,19.29,108.2996,20.53,21.41,12.78,0,110.9,13.18,21.35,87.8
"2010-10-16 00:15:00",250891,3.056,123.6,0.78,0.064,19.46,108.2996,20.53,21.38,12.77,0,110.9,13.18,21.35,85.6
"2010-10-16 00:15:30",250892,2.985,123.6,0.983,0.068,19.5,108.2996,20.53,21.4,12.8,0,110.9,13.18,21.35,85.6
"2010-10-16 00:16:00",250893,2.855,122.7,1.183,0.038,19.55,108.2996,20.53,21.4,12.82,0,110.9,13.18,21.35,84.7
"2010-10-16 00:16:30",250894,2.751,121.5,1.211,0.063,19.46,108.2996,20.53,21.41,12.78,0,110.9,13.18,21.35,83.5
"2010-10-16 00:17:00",250895,2.698,122.6,0.671,0.038,19.5,108.2951,20.52,21.39,12.81,0,110.9,13.18,21.34,84.6
"2010-10-16 00:17:30",250896,2.678,123.7,0.611,0.055,19.48,108.2791,20.48,21.38,12.84,0,110.9,13.19,21.30,85.7
"2010-10-16 00:18:00",250897,2.658,124.5,0.532,0.027,19.47,108.2739,20.46,21.38,12.86,0,110.9,13.19,21.29,86.5
"2010-10-16 00:18:30",250898,2.598,124.5,0.798,0.037,19.49,108.2686,20.45,21.39,12.88,0,110.9,13.19,21.27,86.5
"2010-10-16 00:19:00",250899,2.521,126.5,0.659,0.037,19.62,108.2692,20.45,21.38,12.83,0,110.9,13.19,21.27,88.5
"2010-10-16 00:19:30",250900,2.599,127.8,0.741,0.043,19.61,108.2704,20.45,21.38,12.83,0,110.9,13.18,21.28,89.8
"2010-10-16 00:20:00",250901,2.633,125.9,0.974,0.033,19.56,108.2719,20.46,21.37,12.83,0,110.9,13.18,21.28,87.9
"2010-10-16 00:20:30",250902,2.625,124.9,0.494,0.039,19.54,108.2756,20.47,21.37,12.83,0,110.9,13.18,21.29,86.9
"2010-10-16 00:21:00",250903,2.595,125.6,0.636,0.035,19.62,108.2774,20.47,21.36,12.81,0,110.9,13.18,21.29,87.6
"2010-10-16 00:21:30",250904,2.692,126.1,0.533,0.03,19.59,108.2887,20.5,21.37,12.8,0,110.9,13.18,21.32,88.1
"2010-10-16 00:22:00",250905,2.637,125.6,0.233,0.025,19.6,108.292,20.51,21.36,12.81,0,110.9,13.18,21.33,87.6
"2010-10-16 00:22:30",250906,2.66,125.3,0.342,0.028,19.55,108.2954,20.52,21.36,12.81,0,110.9,13.18,21.34,87.3
"2010-10-16 00:23:00",250907,2.693,124,1.375,0.049,19.56,108.296,20.52,21.37,12.81,0,110.9,13.18,21.34,86.0
"2010-10-16 00:23:30",250908,2.736,122,2.008,0.054,19.47,108.2981,20.52,21.36,12.83,0,110.8,13.19,21.35,84.0
"2010-10-16 00:24:00",250909,2.829,119.3,0.927,0.079,19.33,108.2983,20.53,21.35,12.96,0,110.9,13.18,21.35,81.3
"2010-10-16 00:24:30",250910,2.722,120.6,1.387,0.048,19.32,108.2872,20.5,21.35,13,0,110.8,13.18,21.32,82.6
"2010-10-16 00:25:00",250911,2.899,124.6,0.855,0.074,19.48,108.2776,20.47,21.35,12.97,0,110.8,13.19,21.30,86.6
"2010-10-16 00:25:30",250912,2.876,123.5,0.564,0.04,19.5,108.272,20.46,21.34,12.91,0,110.8,13.19,21.28,85.5
"2010-10-16 00:26:00",250913,2.926,123.1,0.972,0.071,19.51,108.2686,20.45,21.32,12.87,0,110.8,13.19,21.27,85.1
"2010-10-16 00:26:30",250914,3.169,119.5,1.491,0.151,19.41,108.2686,20.45,21.33,12.93,0,110.8,13.2,21.27,81.5
"2010-10-16 00:27:00",250915,2.972,115.1,1.156,0.059,19.29,108.2686,20.45,21.32,12.95,0,110.8,13.2,21.27,77.1
"2010-10-16 00:27:30",250916,2.909,111.3,0.559,0.026,19.51,108.2686,20.45,21.32,13.02,0,110.8,13.2,21.27,73.3
"2010-10-16 00:28:00",250917,2.84,112.2,0.814,0.032,19.51,108.2639,20.44,21.3,13.09,0,110.8,13.2,21.26,74.2
"2010-10-16 00:28:30",250918,2.909,112.9,0.606,0.025,19.44,108.2464,20.39,21.29,13.12,0,110.8,13.2,21.21,74.9
"2010-10-16 00:29:00",250919,2.851,113.8,0.788,0.018,19.47,108.2385,20.37,21.29,13.05,0,110.8,13.2,21.19,75.8
"2010-10-16 00:29:30",250920,2.82,115.5,0.736,0.033,19.36,108.2349,20.36,21.28,13.02,0,110.8,13.2,21.19,77.5
"2010-10-16 00:30:00",250921,2.816,116.8,0.461,0.036,19.3,108.2349,20.36,21.28,13.05,0,110.8,13.2,21.19,78.8
"2010-10-16 00:30:30",250922,2.752,117,0.484,0.036,19.24,108.2349,20.36,21.26,13.04,0,110.8,13.2,21.19,79.0
"2010-10-16 00:31:00",250923,2.794,118.8,0.869,0.063,19.29,108.2349,20.36,21.27,13.13,0,110.8,13.2,21.19,80.8
"2010-10-16 00:31:30",250924,2.902,121.9,0.577,0.026,19.49,108.2349,20.36,21.25,13.13,0,110.8,13.2,21.19,83.9
"2010-10-16 00:32:00",250925,2.977,123.5,0.669,0.024,19.45,108.2347,20.36,21.25,12.86,0,110.8,13.2,21.18,85.5
"2010-10-16 00:32:30",250926,2.961,124.8,0.02,0.032,19.4,108.234,20.36,21.24,12.8,0,110.8,13.2,21.18,86.8
"2010-10-16 00:33:00",250927,2.901,124.3,0.536,0.021,19.42,108.233,20.36,21.23,12.79,0,110.8,13.2,21.18,86.3
"2010-10-16 00:33:30",250928,2.906,126,0.903,0.023,19.27,108.237,20.37,21.24,12.78,0,110.8,13.2,21.19,88.0
"2010-10-16 00:34:00",250929,2.963,127.1,0.534,0.03,19.19,108.2438,20.39,21.22,12.77,0,110.8,13.2,21.21,89.1
"2010-10-16 00:34:30",250930,2.976,127.6,0.418,0.014,19.16,108.2448,20.39,21.24,12.75,0,110.8,13.2,21.21,89.6
"2010-10-16 00:35:00",250931,2.978,127.7,0.313,0,19.13,108.2429,20.38,21.25,12.77,0,110.8,13.2,21.21,89.7
"2010-10-16 00:35:30",250932,2.966,128.7,0.46,0.039,19.15,108.2401,20.38,21.24,12.76,0,110.8,13.2,21.20,90.7
"2010-10-16 00:36:00",250933,2.891,129.2,0.794,0.038,19.12,108.2397,20.37,21.25,12.71,0,110.8,13.21,21.20,91.2
"2010-10-16 00:36:30",250934,2.914,129.9,0.62,0.048,19.19,108.2409,20.38,21.24,12.69,0,110.8,13.2,21.20,91.9
"2010-10-16 00:37:00",250935,2.87,130,0.472,0.029,19.16,108.2433,20.38,21.24,12.69,0,110.8,13.2,21.21,92.0
"2010-10-16 00:37:30",250936,2.853,130.6,0.5,0.036,19.27,108.2466,20.39,21.25,12.7,0,110.8,13.2,21.22,92.6
"2010-10-16 00:38:00",250937,2.854,130.7,0.586,0.049,19.29,108.2458,20.39,21.25,12.65,0,110.8,13.2,21.21,92.7
"2010-10-16 00:38:30",250938,2.852,131.1,0.349,0.041,19.32,108.2441,20.39,21.25,12.62,0,110.8,13.2,21.21,93.1
"2010-10-16 00:39:00",250939,2.827,130.3,0.697,0.051,19.26,108.2411,20.38,21.24,12.59,0,110.8,13.2,21.20,92.3
"2010-10-16 00:39:30",250940,2.926,128.9,0.66,0.066,19.17,108.238,20.37,21.24,12.53,0,110.8,13.2,21.19,90.9
"2010-10-16 00:40:00",250941,2.956,128.4,0.612,0.034,19.15,108.2377,20.37,21.24,12.42,0,110.8,13.2,21.19,90.4
"2010-10-16 00:40:30",250942,2.894,128.3,0.499,0.031,19.17,108.2377,20.37,21.25,12.38,0,110.8,13.2,21.19,90.3
"2010-10-16 00:41:00",250943,2.884,128.5,0.691,0.033,19.2,108.2377,20.37,21.24,12.39,0,110.8,13.2,21.19,90.5
"2010-10-16 00:41:30",250944,2.863,127.7,0.421,0.062,19.18,108.2377,20.37,21.23,12.36,0,110.8,13.2,21.19,89.7
"2010-10-16 00:42:00",250945,2.742,128.4,0.754,0.04,19.31,108.2374,20.37,21.23,12.38,0,110.7,13.21,21.19,90.4
"2010-10-16 00:42:30",250946,2.684,128.8,0.321,0.025,19.27,108.232,20.36,21.23,12.4,0,110.7,13.21,21.18,90.8
"2010-10-16 00:43:00",250947,2.767,128.2,0.728,0.055,19.29,108.2188,20.32,21.22,12.34,0,110.7,13.21,21.14,90.2
"2010-10-16 00:43:30",250948,2.778,127.7,0.584,0.062,19.29,108.2129,20.31,21.22,12.31,0,110.8,13.21,21.13,89.7
"2010-10-16 00:44:00",250949,2.828,127.8,0.749,0.031,19.25,108.2084,20.29,21.22,12.19,0,110.7,13.21,21.12,89.8
"2010-10-16 00:44:30",250950,2.841,127.5,0.901,0.047,19.24,108.2048,20.28,21.21,12.18,0,110.7,13.21,21.11,89.5
"2010-10-16 00:45:00",250951,2.858,125.9,0.733,0.043,19.13,108.2045,20.28,21.19,12.07,0,110.7,13.21,21.11,87.9
"2010-10-16 00:45:30",250952,2.85,123.9,0.946,0.029,19.22,108.2042,20.28,21.2,12.05,0,110.7,13.21,21.11,85.9
"2010-10-16 00:46:00",250953,2.861,121.7,1.126,0.036,19.27,108.2063,20.29,21.19,12.05,0,110.7,13.21,21.11,83.7
"2010-10-16 00:46:30",250954,2.825,120.6,0.957,0.039,19.27,108.2067,20.29,21.18,12.04,0,110.7,13.21,21.11,82.6
"2010-10-16 00:47:00",250955,2.854,118.2,0.674,0.033,19.38,108.2097,20.3,21.19,12.03,0,110.7,13.21,21.12,80.2
"2010-10-16 00:47:30",250956,2.883,115.1,0.769,0.033,19.35,108.2082,20.29,21.19,12.11,0,110.7,13.22,21.12,77.1
"2010-10-16 00:48:00",250957,2.915,116,0.707,0.021,19.39,108.2112,20.3,21.2,12.16,0,110.7,13.22,21.12,78.0
"2010-10-16 00:48:30",250958,2.961,116,0.523,0.032,19.4,108.2085,20.29,21.19,12.15,0,110.7,13.22,21.12,78.0
"2010-10-16 00:49:00",250959,2.978,116,0.528,0,19.39,108.2056,20.29,21.17,12.18,0,110.7,13.22,21.11,78.0
"2010-10-16 00:49:30",250960,2.941,115,0.535,0.038,19.39,108.199,20.27,21.18,12.16,0,110.7,13.22,21.09,77.0
"2010-10-16 00:50:00",250961,2.911,115.5,0.197,0.023,19.4,108.1946,20.26,21.16,12.2,0,110.7,13.22,21.08,77.5
"2010-10-16 00:50:30",250962,2.987,116.1,0.533,0.033,19.35,108.1936,20.26,21.16,12.2,0,110.7,13.22,21.08,78.1
"2010-10-16 00:51:00",250963,2.928,116.8,0.455,0.036,19.34,108.1939,20.26,21.16,12.19,0,110.7,13.22,21.08,78.8
"2010-10-16 00:51:30",250964,2.866,118.4,0.855,0.029,19.3,108.1957,20.26,21.15,12.15,0,110.7,13.22,21.08,80.4
"2010-10-16 00:52:00",250965,2.745,119.4,0.206,0.055,19.17,108.1963,20.26,21.16,12.12,0,110.7,13.22,21.09,81.4
"2010-10-16 00:52:30",250966,2.644,120.8,0.786,0.024,19.18,108.2006,20.27,21.15,12.11,0,110.7,13.22,21.10,82.8
"2010-10-16 00:53:00",250967,2.589,123.4,0.962,0.035,19.29,108.2,20.27,21.14,12.13,0,110.7,13.22,21.10,85.4
"2010-10-16 00:53:30",250968,2.568,126.3,0.428,0.025,19.49,108.2027,20.28,21.15,12.13,0,110.7,13.22,21.10,88.3
"2010-10-16 00:54:00",250969,2.585,128.5,0.488,0.033,19.45,108.2039,20.28,21.14,12.07,0,110.7,13.22,21.11,90.5
"2010-10-16 00:54:30",250970,2.615,130.4,0.53,0.037,19.35,108.2064,20.29,21.15,12.04,0,110.7,13.22,21.11,92.4
"2010-10-16 00:55:00",250971,2.612,130,0.415,0.034,19.36,108.2067,20.29,21.15,12.12,0,110.7,13.22,21.11,92.0
"2010-10-16 00:55:30",250972,2.7,130.3,0.53,0.032,19.33,108.2067,20.29,21.16,12.12,0,110.7,13.22,21.11,92.3
"2010-10-16 00:56:00",250973,2.728,130.9,0.535,0.045,19.3,108.2067,20.29,21.15,12.15,0,110.7,13.22,21.11,92.9
"2010-10-16 00:56:30",250974,2.833,132.3,0.466,0.048,19.36,108.2067,20.29,21.16,12.22,0,110.7,13.22,21.11,94.3
"2010-10-16 00:57:00",250975,2.884,132.8,0.433,0.061,19.43,108.2073,20.29,21.17,12.2,0,110.7,13.22,21.11,94.8
"2010-10-16 00:57:30",250976,2.918,133.8,0.66,0.056,19.5,108.2101,20.3,21.17,12.2,0,110.7,13.22,21.12,95.8
"2010-10-16 00:58:00",250977,3.001,135.4,0.514,0.03,19.41,108.2118,20.3,21.18,12.16,0,110.7,13.22,21.13,97.4
"2010-10-16 00:58:30",250978,3.021,137.3,0.9,0.03,19.29,108.2129,20.31,21.19,12.13,0,110.7,13.22,21.13,99.3
"2010-10-16 00:59:00",250979,3.152,139.5,0.725,0.064,19.33,108.2149,20.31,21.19,12.14,0,110.7,13.22,21.13,101.5
"2010-10-16 00:59:30",250980,3.282,140.8,0.574,0.035,19.51,108.2174,20.32,21.21,12.12,0,110.7,13.23,21.14,102.8
"2010-10-16 01:00:00",250981,3.383,142.1,0.664,0.038,19.37,108.2194,20.32,21.21,12.07,0,110.7,13.23,21.15,104.1
"2010-10-16 01:00:30",250982,3.41,140.9,0.398,0.041,19.41,108.2216,20.33,21.22,12.12,0,110.7,13.23,21.15,102.9
"2010-10-16 01:01:00",250983,3.44,142.5,0.672,0.055,19.29,108.2264,20.34,21.22,12.1,0,110.7,13.23,21.16,104.5
"2010-10-16 01:01:30",250984,3.253,143.4,0.525,0.02,19.35,108.2323,20.36,21.22,12.05,0,110.7,13.23,21.18,105.4
"2010-10-16 01:02:00",250985,3.356,143.6,0.708,0.063,19.24,108.2345,20.36,21.22,12.01,0,110.7,13.23,21.18,105.6
"2010-10-16 01:02:30",250986,3.403,145.7,1.669,0.042,19.22,108.2371,20.37,21.22,11.96,0,110.7,13.23,21.19,107.7
"2010-10-16 01:03:00",250987,3.376,156.6,6.706,0.314,19.66,108.241,20.38,21.23,11.87,0,110.7,13.23,21.20,118.6
"2010-10-16 01:03:30",250988,3.556,147.7,1.026,0.028,19.16,108.2483,20.4,21.25,11.93,0,110.7,13.23,21.22,109.7
"2010-10-16 01:04:00",250989,3.549,147.9,0.632,0.033,19.12,108.2416,20.38,21.26,12.07,0,110.7,13.23,21.20,109.9
"2010-10-16 01:04:30",250990,3.522,147.5,0.58,0.033,19.22,108.2405,20.38,21.25,12.12,0,110.7,13.23,21.20,109.5
"2010-10-16 01:05:00",250991,3.837,147.3,4.489,0.263,19.31,108.2408,20.38,21.25,12.07,0,110.7,13.23,21.20,109.3
"2010-10-16 01:05:30",250992,3.308,153.3,6.315,0.212,19.43,108.2405,20.38,21.24,12.01,0,110.7,13.23,21.20,115.3
"2010-10-16 01:06:00",250993,3.439,149.2,2.235,0.054,19.29,108.2408,20.38,21.25,11.98,0,110.7,13.23,21.20,111.2
"2010-10-16 01:06:30",250994,3.305,149.9,2.853,0.168,19.27,108.2408,20.38,21.27,12.01,0,110.7,13.23,21.20,111.9
"2010-10-16 01:07:00",250995,3.275,151,1.622,0.094,19.27,108.242,20.38,21.25,11.96,0,110.7,13.23,21.20,113.0
"2010-10-16 01:07:30",250996,3.076,149.5,0.59,0.075,19.28,108.2414,20.38,21.24,12.04,0,110.7,13.23,21.20,111.5
"2010-10-16 01:08:00",250997,2.956,145.3,1.696,0.038,19.26,108.2364,20.37,21.25,11.8,0,110.7,13.23,21.19,107.3
"2010-10-16 01:08:30",250998,2.881,142.8,1.003,0.059,19.28,108.2243,20.34,21.25,11.5,0,110.7,13.23,21.16,104.8
"2010-10-16 01:09:00",250999,2.821,138.8,1.531,0.07,19.15,108.22,20.32,21.22,11.27,0,110.7,13.23,21.15,100.8
"2010-10-16 01:09:30",251000,2.688,137,1.086,0.033,19.19,108.2201,20.32,21.24,10.99,0,110.7,13.23,21.15,99.0
"2010-10-16 01:10:00",251001,2.676,133.8,1.328,0.052,19.2,108.2189,20.32,21.23,11.1,0,110.7,13.23,21.14,95.8
"2010-10-16 01:10:30",251002,2.69,129.3,0.521,0.02,19.31,108.2217,20.33,21.23,10.7,0,110.7,13.23,21.15,91.3
"2010-10-16 01:11:00",251003,2.63,127.7,0.542,0.028,19.33,108.2221,20.33,21.25,10.57,0,110.7,13.23,21.15,89.7
"2010-10-16 01:11:30",251004,2.582,125.9,0.661,0.047,19.32,108.2195,20.32,21.24,10.66,0,110.7,13.23,21.15,87.9
"2010-10-16 01:12:00",251005,2.731,126.7,0.271,0.049,19.27,108.2231,20.33,21.22,10.64,0,110.7,13.23,21.16,88.7
"2010-10-16 01:12:30",251006,2.815,126.4,0.429,0.036,19.11,108.2274,20.34,21.23,10.62,0,110.7,13.23,21.17,88.4
"2010-10-16 01:13:00",251007,2.834,125.6,0.724,0.04,19.09,108.2295,20.35,21.23,10.37,0,110.7,13.23,21.17,87.6
"2010-10-16 01:13:30",251008,2.796,125.4,0.439,0.041,19.08,108.2317,20.35,21.23,10.28,0,110.7,13.23,21.18,87.4
"2010-10-16 01:14:00",251009,2.679,122.8,0.428,0.038,19.16,108.231,20.35,21.24,10.26,0,110.7,13.23,21.18,84.8
"2010-10-16 01:14:30",251010,2.632,122.4,0.724,0.028,19.23,108.2338,20.36,21.22,10.24,0,110.7,13.23,21.18,84.4
"2010-10-16 01:15:00",251011,2.547,124.1,0.539,0.038,19.27,108.2338,20.36,21.22,10.29,0,110.7,13.23,21.18,86.1
"2010-10-16 01:15:30",251012,2.478,125.4,0.281,0.031,19.24,108.235,20.36,21.22,10.4,0,110.7,13.23,21.19,87.4
"2010-10-16 01:16:00",251013,2.443,126.8,0.923,0.029,19.29,108.2347,20.36,21.23,10.58,0,110.7,13.23,21.18,88.8
"2010-10-16 01:16:30",251014,2.387,127.5,0.659,0.034,19.15,108.2344,20.36,21.21,10.78,0,110.7,13.24,21.18,89.5
"2010-10-16 01:17:00",251015,2.376,129.3,0.532,0.026,19.12,108.2295,20.35,21.21,10.87,0,110.7,13.24,21.17,91.3
"2010-10-16 01:17:30",251016,2.419,130.2,0.491,0.028,19.07,108.2208,20.33,21.19,10.87,0,110.7,13.24,21.15,92.2
"2010-10-16 01:18:00",251017,2.433,131.2,0.356,0.022,18.97,108.2094,20.3,21.17,10.93,0,110.7,13.24,21.12,93.2
"2010-10-16 01:18:30",251018,2.489,132.3,0.44,0.06,19.08,108.2085,20.29,21.16,11.1,0,110.7,13.24,21.12,94.3
"2010-10-16 01:19:00",251019,2.594,133.8,0.643,0.032,19.28,108.2085,20.29,21.15,11.18,0,110.7,13.24,21.12,95.8
"2010-10-16 01:19:30",251020,2.637,133.9,0.894,0.029,19.27,108.2089,20.3,21.14,11.25,0,110.7,13.24,21.12,95.9
"2010-10-16 01:20:00",251021,2.562,134.2,1.118,0.026,19.29,108.2049,20.29,21.13,11.24,0,110.7,13.24,21.11,96.2
"2010-10-16 01:20:30",251022,2.48,139.5,3.476,0.064,19.15,108.1953,20.26,21.12,11,0,110.7,13.24,21.08,101.5
"2010-10-16 01:21:00",251023,2.568,144.5,0.676,0.026,18.94,108.1819,20.23,21.11,10.71,0,110.7,13.24,21.05,106.5
"2010-10-16 01:21:30",251024,2.552,146.6,1.217,0.043,19.06,108.1759,20.21,21.1,11.26,0,110.7,13.24,21.03,108.6
"2010-10-16 01:22:00",251025,2.765,146.8,1.397,0.073,19.39,108.1757,20.21,21.09,11.44,0,110.7,13.24,21.03,108.8
"2010-10-16 01:22:30",251026,2.871,144.6,0.586,0.028,19.38,108.1757,20.21,21.06,10.99,0,110.7,13.25,21.03,106.6
"2010-10-16 01:23:00",251027,2.879,144.3,0.3,0.028,19.39,108.1757,20.21,21.06,10.78,0,110.7,13.25,21.03,106.3
"2010-10-16 01:23:30",251028,2.874,144.4,0.628,0.03,19.38,108.1757,20.21,21.07,10.85,0,110.7,13.25,21.03,106.4
"2010-10-16 01:24:00",251029,2.981,148.2,1.264,0.046,18.94,108.1757,20.21,21.07,11.3,0,110.7,13.25,21.03,110.2
"2010-10-16 01:24:30",251030,2.92,146.7,1.114,0.044,19.14,108.1757,20.21,21.07,11.46,0,110.7,13.25,21.03,108.7
"2010-10-16 01:25:00",251031,2.936,145.8,0.657,0.042,19.19,108.1757,20.21,21.07,11.21,0,110.7,13.25,21.03,107.8
"2010-10-16 01:25:30",251032,2.979,146.5,0.471,0,19.13,108.1757,20.21,21.06,10.7,0,110.7,13.25,21.03,108.5
"2010-10-16 01:26:00",251033,3.009,148.5,0.868,0.046,19.03,108.1757,20.21,21.07,11.14,0,110.7,13.25,21.03,110.5
"2010-10-16 01:26:30",251034,3.016,150.3,1.039,0.045,19.01,108.1757,20.21,21.09,11.49,0,110.7,13.25,21.03,112.3
"2010-10-16 01:27:00",251035,3.03,152.7,1.196,0.036,19.04,108.1757,20.21,21.06,11.68,0,110.7,13.25,21.03,114.7
"2010-10-16 01:27:30",251036,2.947,152.6,1.299,0.055,19.04,108.1757,20.21,21.07,11.7,0,110.7,13.24,21.03,114.6
"2010-10-16 01:28:00",251037,2.768,150.5,0.489,0.059,19.27,108.1757,20.21,21.06,11.49,0,110.7,13.24,21.03,112.5
"2010-10-16 01:28:30",251038,2.644,149.2,0.635,0.079,19.27,108.1757,20.21,21.08,11.29,0,110.7,13.24,21.03,111.2
"2010-10-16 01:29:00",251039,2.563,145.2,2.059,0.142,19.45,108.1883,20.24,21.09,11.02,0,110.7,13.24,21.07,107.2
"2010-10-16 01:29:30",251040,2.554,149.4,1.741,0.115,19.26,108.2089,20.3,21.11,10.83,0,110.7,13.23,21.12,111.4
"2010-10-16 01:30:00",251041,2.502,148.9,0.363,0.086,19.2,108.2095,20.3,21.13,10.88,0,110.7,13.24,21.12,110.9
"2010-10-16 01:30:30",251042,2.586,147.9,0.665,0.054,19.12,108.2095,20.3,21.14,10.91,0,110.7,13.24,21.12,109.9
"2010-10-16 01:31:00",251043,2.415,147.2,0.535,0.081,19.18,108.2095,20.3,21.15,10.96,0,110.7,13.24,21.12,109.2
"2010-10-16 01:31:30",251044,2.247,146.8,0.763,0.026,19.15,108.2095,20.3,21.15,10.93,0,110.7,13.24,21.12,108.8
"2010-10-16 01:32:00",251045,2.298,144.5,0.591,0.06,19.11,108.2095,20.3,21.17,11.14,0,110.7,13.24,21.12,106.5
"2010-10-16 01:32:30",251046,2.337,143.6,0.677,0.04,19.18,108.2095,20.3,21.16,11.05,0,110.7,13.24,21.12,105.6
"2010-10-16 01:33:00",251047,2.326,143.3,1.626,0.039,19.22,108.2095,20.3,21.16,10.86,0,110.7,13.25,21.12,105.3
"2010-10-16 01:33:30",251048,2.199,145.7,0.935,0.072,19.22,108.2095,20.3,21.18,10.78,0,110.7,13.25,21.12,107.7
"2010-10-16 01:34:00",251049,2.298,142.5,3.286,0.102,19.28,108.2097,20.3,21.18,10.97,0,110.7,13.25,21.12,104.5
"2010-10-16 01:34:30",251050,2.186,148.1,3.214,0.128,19.23,108.2114,20.3,21.18,11.1,0,110.7,13.25,21.12,110.1
"2010-10-16 01:35:00",251051,2.11,143.8,1.238,0.054,19.28,108.2095,20.3,21.18,11.38,0,110.7,13.25,21.12,105.8
"2010-10-16 01:35:30",251052,2.282,143.8,2.318,0.065,19.18,108.2095,20.3,21.18,11.86,0,110.7,13.25,21.12,105.8
"2010-10-16 01:36:00",251053,2.251,142.1,1.843,0.058,19.24,108.2035,20.28,21.16,11.96,0,110.7,13.25,21.10,104.1
"2010-10-16 01:36:30",251054,2.421,143.9,0.506,0.055,18.95,108.1788,20.22,21.14,12.32,0,110.7,13.25,21.04,105.9
"2010-10-16 01:37:00",251055,2.444,143.8,0.466,0.021,18.95,108.1757,20.21,21.13,12.46,0,110.7,13.25,21.03,105.8
"2010-10-16 01:37:30",251056,2.46,142.1,0.617,0.029,19.05,108.1751,20.21,21.11,12.47,0,110.7,13.25,21.03,104.1
"2010-10-16 01:38:00",251057,2.493,143.1,0.557,0.018,19.01,108.1636,20.18,21.09,12.49,0,110.7,13.25,21.00,105.1
"2010-10-16 01:38:30",251058,2.452,143.2,0.504,0.03,18.96,108.1509,20.15,21.09,12.53,0,110.7,13.25,20.97,105.2
"2010-10-16 01:39:00",251059,2.43,143.5,0.503,0.014,18.95,108.1419,20.12,21.07,12.54,0,110.7,13.25,20.95,105.5
"2010-10-16 01:39:30",251060,2.424,144.1,0.547,0.023,18.94,108.1419,20.12,21.05,12.56,0,110.7,13.25,20.95,106.1
"2010-10-16 01:40:00",251061,2.349,145,0.689,0.035,18.99,108.1419,20.12,21.05,12.57,0,110.7,13.25,20.95,107.0
"2010-10-16 01:40:30",251062,2.364,145.3,0.428,0.065,18.96,108.1419,20.12,21.04,12.64,0,110.7,13.25,20.95,107.3
"2010-10-16 01:41:00",251063,2.444,145.1,0.558,0.023,18.81,108.1419,20.12,21.02,12.78,0,110.7,13.25,20.95,107.1
"2010-10-16 01:41:30",251064,2.433,144.5,0.479,0.011,18.81,108.1323,20.1,21.02,12.81,0,110.7,13.25,20.92,106.5
"2010-10-16 01:42:00",251065,2.387,144.5,0.495,0.037,18.9,108.114,20.05,20.99,12.8,0,110.7,13.25,20.87,106.5
"2010-10-16 01:42:30",251066,2.304,144,0.313,0.035,19.11,108.1084,20.04,21,12.8,0,110.7,13.25,20.86,106.0
"2010-10-16 01:43:00",251067,2.274,144.1,0.417,0.019,19.21,108.1084,20.04,20.98,12.81,0,110.7,13.25,20.86,106.1
"2010-10-16 01:43:30",251068,2.215,142.8,0.633,0.026,19.37,108.1084,20.04,20.98,12.8,0,110.7,13.26,20.86,104.8
"2010-10-16 01:44:00",251069,2.115,143.3,0.693,0.038,19.41,108.1093,20.04,20.98,12.79,0,110.7,13.25,20.86,105.3
"2010-10-16 01:44:30",251070,2.037,145.3,0.848,0.025,19.36,108.1099,20.04,20.97,12.78,0,110.7,13.25,20.86,107.3
"2010-10-16 01:45:00",251071,2.014,147.2,0.533,0.028,19.39,108.1115,20.05,20.97,12.78,0,110.7,13.25,20.87,109.2
"2010-10-16 01:45:30",251072,1.954,147.8,0.697,0.012,19.37,108.1118,20.05,20.97,12.8,0,110.7,13.25,20.87,109.8
"2010-10-16 01:46:00",251073,1.985,149.4,0.697,0.036,19.37,108.1145,20.05,20.95,12.83,0,110.7,13.25,20.88,111.4
"2010-10-16 01:46:30",251074,2.008,150.6,0.349,0.031,19.39,108.116,20.06,20.96,12.84,0,110.7,13.25,20.88,112.6
"2010-10-16 01:47:00",251075,1.952,155,1.404,0,19.39,108.1169,20.06,20.95,12.84,0,110.7,13.25,20.88,117.0
"2010-10-16 01:47:30",251076,1.923,157,0.529,0.029,19.4,108.12,20.07,20.94,12.83,0,110.7,13.25,20.89,119.0
"2010-10-16 01:48:00",251077,1.921,158.4,0.515,0.032,19.41,108.1187,20.06,20.94,12.85,0,110.7,13.25,20.89,120.4